Flag for U.S.A. Weather past 2 weeks in Tampa, Florida, U.S.A.

Now
57 °F

Passing clouds.


Feels Like: 57 °F
Forecast: 47 / 69 °F
Wind: 5 mph from Northwest

Location: Tampa International Airport

Current Time: Dec 17, 2014 at 10:06:18 PM

Latest Report: Dec 17, 2014 at 8:53 PM


Visibility: 10 mi

Pressure: 30.16 "Hg

Humidity: 74%

Dew point: 49 °F

Location of TampaLocation

Historic Weather in Tampa — Graph

°F

Tampa temperature yesterday

Maximum temperature yesterday: 70 °F (at 3:53 PM)
Minimum temperature yesterday: 48 °F (at 5:53 AM)
Average temperature yesterday: 58 °F

Past Weeks' High & Low Weather Summary

 TemperatureHumidityPressure
High81 °F (Dec 4, 2:53 PM)97% (Dec 6, 11:53 PM)30.31 "Hg (Dec 6, 11:53 PM)
Low45 °F (Dec 13, 5:53 AM)24% (Dec 13, 2:53 PM)30.05 "Hg (Dec 9, 3:53 PM)
Average61 °F74%30.15 "Hg
* Reported Dec 2 8:53 PM — Dec 17 8:53 PM, Tampa, Weather by CustomWeather, © 2014

Note: Actual official high and low records may vary slightly from our data, if they occured in-between our weather recording intervals... More about our weather records

Advertising

Tampa weather history for previous 24 hours

 ConditionsComfort  
Time TempWeatherWind HumidityBarometerVisibility
8:53 PM
Dec 17
57 °FPassing clouds.5 mph74%30.16 "Hg10 mi
7:53 PM58 °FPassing clouds.5 mph72%30.16 "Hg10 mi
6:53 PM61 °FPassing clouds.7 mph62%30.15 "Hg10 mi
5:53 PM64 °FOvercast.6 mph58%30.13 "Hg10 mi
4:53 PM68 °FPartly sunny.9 mph53%30.13 "Hg10 mi
3:53 PM71 °FPartly sunny.9 mph53%30.12 "Hg10 mi
2:53 PM71 °FPassing clouds.5 mph51%30.12 "Hg10 mi
1:53 PM73 °FPassing clouds.7 mph46%30.13 "Hg10 mi
12:53 PM69 °FPassing clouds.7 mph53%30.16 "Hg10 mi
11:53 AM69 °FPassing clouds.7 mph55%30.19 "Hg10 mi
10:53 AM69 °FPassing clouds.No wind49%30.22 "Hg10 mi
9:53 AM66 °FScattered clouds.3 mph61%30.22 "Hg10 mi
8:53 AM63 °FPartly sunny.3 mph75%30.21 "Hg9 mi
7:53 AM63 °FPartly sunny.6 mph75%30.19 "Hg10 mi
6:53 AM63 °FMostly cloudy.3 mph75%30.17 "Hg10 mi
5:53 AM64 °FOvercast.5 mph78%30.16 "Hg10 mi
4:53 AM64 °FOvercast.No wind84%30.16 "Hg10 mi
3:53 AM63 °FPassing clouds.No wind90%30.16 "Hg10 mi
2:53 AM62 °FPassing clouds.5 mph93%30.16 "Hg10 mi
1:53 AM62 °FPassing clouds.5 mph93%30.16 "Hg10 mi
12:53 AM63 °FPassing clouds.6 mph90%30.17 "Hg10 mi
11:53 PM
Dec 16
63 °FPassing clouds.6 mph90%30.18 "Hg10 mi
10:53 PM63 °FPassing clouds.7 mph87%30.19 "Hg10 mi
Weather by CustomWeather, © 2014

See weather overviewHow to use our weather pages